Location: Arcusa
(42.3167°N, 0.0833°W)
Time: 18:15:01
(UTC+00:00)

Lacrosse 5 - Pass Details

Date: 25 January 2020
Orbit: 717 x 722 km, 57.0° (Epoch: 17 February)

Event Time Altitude Azimuth Distance (km) Brightness Sun altitude
Exits shadow 06:01:54 12° 238° (WSW) 2,090 3.9 -14.6°
Maximum altitude 06:06:39 65° 319° (NW) 791 1.8 -13.8°
Drops below altitude 10° 06:11:42 10° 42° (NE) 2,206 4.8 -12.9°
Sets 06:14:06 0° 45° (NE) 3,129 5.6 -12.4°
